CZ-6A DEB, 56677

Orbit data source: Space-Track

CZ-6A DEB, 56677 is space debris in SSO originally from a launch on Fri, 11 Nov 2022 UTC launched from the Taiyaun Space Center, China (TSC). Debris objects in space refer to the collection of defunct objects orbiting the Earth. Examples of debris include non-operational satellites, rocket bodies, and fragments generated from explosions, collisions, or faulty payload assembly.

Loading next visibility...
Identifier
56677, 2022-151AHD
Orbit
SSO
Country
Flag of CNCN / PRC
Related business
Manufacturer
SAST
Mission
Spacecraft
Bus & Motor
Unknown
Mass
Unknown
Launch date (UTC)
2022-11-11 (3 years ago)
Launch vehicle
Unknown
Launch site
Taiyaun Space Center, China (TSC)
Object type
Payload
Rocket body
Debris
Shape & HBR
Unknown shape, 0.1 m
Radar Cross Section
Small (<0.1 m²)

Expand to show TLE details & history
Last TLE update: 3 days ago

TLE from 3 days ago
0 CZ-6A DEB
1 56677U 22151AHD 25346.86520828  .00001149  00000-0  37129-3 0  9991
2 56677  98.6318   6.5952 0160987 244.3892 114.0582 14.34002077138199
Epoch: 2025-12-12T20:45Z
TLE epoch observation values (Epoch: 2025-12-12T20:45:53.995Z)
Latitude
-0.00005°
Longitude
-26.68047°
Altitude
829.829 km
Speed
7.413 km/s
True Right ascension
00h 26m 22s
True Declination
0° 00' 00"
Sunlit
Object was in daylight at epoch
Visualization orbit readout
Latitude
Unknown
Longitude
Unknown
Altitude
Unknown
Speed
Unknown
Apparent Right ascension
Unknown
Apparent Declination
Unknown
Sunlit
N/A
Visualization observer readout
Local Sidereal Time
15:07:32
Azimuth
Unknown
Elevation
Unknown
Doppler factor
Unknown
Orbital elements
Apogee altitude
890.684 km
Perigee altitude
660.355 km
Semi-major axis
7,153.657 km
Eccentricity
0.0161
Inclination
98.6318°
RAAN
6.5952°
Arg. of periapsis
244.3892°
True anomaly
115.72878°
Mean anomaly
114.0582°
Eccentric anomaly
114.89488°
Mean motion
3.58716 °/min
Orbital period
100.36 mins
BSTAR
0.00037129
Loading maneuver chart data...
Computing Atmospheric mass density...
Loading historical data...
Loading historical data...
Loading historical data...
Loading historical data...
Loading historical data...
Loading historical data...
Loading historical data...

Documentation

Showing up to 5 results
|